C31FR-13 Weather Reports


Display with metric or nautical units.
time (UTC)temp
F
wind
direction
speed
MPH
gust
MPH
rain 1hr
in
rain 24hr
in
rain mn
in
humidity
%
barometer
mb
20260502211602 53 0.0 0.0 0.00 0.00 0.00 85 1020.0
20260502211106 53 0.0 0.0 0.00 0.00 0.00 85 1020.0
20260502210602 53 0.0 0.0 0.00 0.00 0.00 87 1020.0
20260502210104 53 0.0 0.0 0.00 0.00 0.00 89 1019.9
20260502205602 53 0.0 0.0 0.00 0.00 0.00 89 1019.9
20260502205103 53 0.0 0.0 0.00 0.00 0.00 87 1019.8
20260502204601 53 0.0 0.0 0.00 0.00 0.00 87 1019.8
20260502204103 53 0.0 0.0 0.00 0.00 0.00 87 1019.8
20260502203602 53 0.0 0.0 0.00 0.00 0.00 87 1019.8
20260502203103 53 0.0 0.0 0.00 0.00 0.00 87 1019.7
20260502202602 53 0.0 0.0 0.00 0.00 0.00 88 1019.7
20260502202102 53 0.0 0.0 0.00 0.00 0.00 88 1019.6
20260502201602 53 0.0 0.0 0.00 0.00 0.00 89 1019.6
20260502201102 53 0.0 0.0 0.00 0.00 0.00 89 1019.6
20260502200602 54 0.0 0.0 0.00 0.00 0.00 88 1019.6
20260502195603 54 0.0 0.0 0.00 0.00 0.00 87 1019.8
20260502195102 54 0.0 0.0 0.00 0.00 0.00 85 1019.7
20260502194602 54 0.0 0.0 0.00 0.00 0.00 84 1019.7
20260502194102 54 0.0 0.0 0.00 0.00 0.00 83 1019.7
20260502193603 54 0.0 0.0 0.00 0.00 0.00 83 1019.8
20260502193102 54 0.0 0.0 0.00 0.00 0.00 85 1019.6
20260502192602 53 0.0 0.0 0.00 0.00 0.00 88 1019.6
20260502191602 54 0.0 0.0 0.00 0.00 0.00 88 1019.4
20260502191102 54 0.0 0.0 0.00 0.00 0.00 86 1019.3
20260502190602 54 0.0 0.0 0.00 0.00 0.00 86 1019.4
20260502185102 54 0.0 0.0 0.00 0.00 0.00 88 1019.4
20260502184604 54 0.0 0.0 0.00 0.00 0.00 90 1019.4
20260502184103 54 0.0 0.0 0.00 0.00 0.00 90 1019.4
20260502183602 54 0.0 0.0 0.00 0.00 0.00 89 1019.4
20260502183102 54 0.0 0.0 0.00 0.00 0.00 88 1019.4
20260502182602 54 0.0 0.0 0.00 0.00 0.00 88 1019.4
20260502182102 55 0.0 0.0 0.00 0.00 0.00 88 1019.4
20260502181602 54 0.0 0.0 0.00 0.00 0.00 88 1019.5
20260502181102 54 0.0 0.0 0.00 0.00 0.00 89 1019.5
20260502180604 54 0.0 0.0 0.00 0.00 0.00 90 1019.4
20260502170103 54 0.0 0.0 0.00 0.00 0.00 94 1019.8
20260502164102 55 0.0 0.0 0.00 0.00 0.00 91 1020.3
20260502163602 55 0.0 0.0 0.00 0.00 0.00 94 1020.3
20260502163102 55 0.0 0.0 0.00 0.00 0.00 93 1020.3
20260502162602 55 0.0 0.0 0.00 0.00 0.00 92 1020.4
20260502162103 55 0.0 0.0 0.00 0.00 0.00 91 1020.3
20260502161603 55 0.0 0.0 0.00 0.00 0.00 93 1020.3
20260502161102 55 0.0 0.0 0.00 0.00 0.00 97 1020.4
20260502160602 55 0.0 0.0 0.00 0.00 0.00 98 1020.5
20260502151602 55 0.0 0.0 0.00 0.00 0.00 92 1020.9
20260502130602 54 0.0 0.0 0.00 0.00 0.00 99 1022.5
20260502123602 54 0.0 0.0 0.00 0.00 0.00 96 1022.3
20260502123102 54 0.0 0.0 0.00 0.00 0.00 96 1022.4
20260502122602 54 0.0 0.0 0.00 0.00 0.00 97 1022.5
20260502122102 54 0.0 0.0 0.00 0.00 0.00 96 1022.5
20260502121603 54 0.0 0.0 0.00 0.00 0.00 95 1022.5
20260502121102 54 0.0 0.0 0.00 0.00 0.00 95 1022.5
20260502120602 54 0.0 0.0 0.00 0.00 0.00 93 1022.6
20260502115602 55 0.0 0.0 0.00 0.00 0.00 94 1022.6
20260502115101 55 0.0 0.0 0.00 0.00 0.00 94 1022.7
20260502114102 55 0.0 0.0 0.00 0.00 0.00 92 1022.8
20260502113602 56 0.0 0.0 0.00 0.00 0.00 87 1022.9
20260502113103 55 0.0 0.0 0.00 0.00 0.00 87 1023.0
20260502112602 55 0.0 0.0 0.00 0.00 0.00 87 1023.0
20260502112103 55 0.0 0.0 0.00 0.00 0.00 83 1023.0
20260502111602 56 0.0 0.0 0.00 0.00 0.00 80 1023.0
20260502111102 56 0.0 0.0 0.00 0.00 0.00 80 1022.9
20260502110602 56 0.0 0.0 0.00 0.00 0.00 80 1022.9
20260502105602 56 0.0 0.0 0.00 0.00 0.00 79 1023.0
20260502105102 56 0.0 0.0 0.00 0.00 0.00 78 1023.0
20260502104603 56 0.0 0.0 0.00 0.00 0.00 78 1023.1
20260502104102 56 0.0 0.0 0.00 0.00 0.00 78 1023.2
20260502103602 56 0.0 0.0 0.00 0.00 0.00 79 1023.2
20260502103102 56 0.0 0.0 0.00 0.00 0.00 80 1023.2
20260502102602 56 0.0 0.0 0.00 0.00 0.00 82 1023.3
20260502102102 56 0.0 0.0 0.00 0.00 0.00 82 1023.3
20260502101602 56 0.0 0.0 0.00 0.00 0.00 81 1023.3
20260502101102 56 0.0 0.0 0.00 0.00 0.00 81 1023.3
20260502100602 56 0.0 0.0 0.00 0.00 0.00 80 1023.4
20260502091103 55 0.0 0.0 0.00 0.00 0.00 81 1023.5
20260502090602 55 0.0 0.0 0.00 0.00 0.00 81 1023.6
20260502071102 55 0.0 0.0 0.00 0.00 0.00 83 1023.6
20260502070603 55 0.0 0.0 0.00 0.00 0.00 86 1023.6
20260502065602 54 0.0 0.0 0.00 0.00 0.00 86 1023.8
20260502065103 54 0.0 0.0 0.00 0.00 0.00 85 1023.9
20260502064603 54 0.0 0.0 0.00 0.00 0.00 85 1023.8
20260502064102 54 0.0 0.0 0.00 0.00 0.00 86 1023.8
20260502063602 54 0.0 0.0 0.00 0.00 0.00 84 1023.8
20260502063102 54 0.0 0.0 0.00 0.00 0.00 84 1023.8
20260502062602 54 0.0 0.0 0.00 0.00 0.00 86 1023.8
20260502062103 55 0.0 0.0 0.00 0.00 0.00 81 1023.8
20260502061602 54 0.0 0.0 0.00 0.00 0.00 84 1023.7
20260502061102 54 0.0 0.0 0.00 0.00 0.00 83 1023.8
20260502060602 55 0.0 0.0 0.00 0.00 0.00 85 1023.7
20260502055603 54 0.0 0.0 0.00 0.00 0.00 86 1023.9
20260502055103 54 0.0 0.0 0.00 0.00 0.00 85 1023.9
20260502054604 54 0.0 0.0 0.00 0.00 0.00 82 1023.8
20260502054103 55 0.0 0.0 0.00 0.00 0.00 81 1023.8
20260502053102 55 0.0 0.0 0.00 0.00 0.00 79 1023.7
20260502052603 54 0.0 0.0 0.00 0.00 0.00 80 1023.7
20260502052102 55 0.0 0.0 0.00 0.00 0.00 80 1023.6
20260502051602 55 0.0 0.0 0.00 0.00 0.00 79 1023.6
20260502051103 54 0.0 0.0 0.00 0.00 0.00 80 1023.7
20260502050602 55 0.0 0.0 0.00 0.00 0.00 78 1023.7
20260502045602 56 0.0 0.0 0.00 0.00 0.00 77 1023.7
20260502045102 55 0.0 0.0 0.00 0.00 0.00 79 1023.7
20260502044602 55 0.0 0.0 0.00 0.00 0.00 77 1023.6
20260502044102 55 0.0 0.0 0.00 0.00 0.00 77 1023.6
20260502043602 55 0.0 0.0 0.00 0.00 0.00 77 1023.6
20260502043102 55 0.0 0.0 0.00 0.00 0.00 77 1023.6
20260502042602 55 0.0 0.0 0.00 0.00 0.00 76 1023.6
20260502042102 54 0.0 0.0 0.00 0.00 0.00 77 1023.6
20260502041603 55 0.0 0.0 0.00 0.00 0.00 75 1023.6
20260502040601 55 0.0 0.0 0.00 0.00 0.00 76 1023.5
20260502035602 55 0.0 0.0 0.00 0.00 0.00 76 1023.6
20260502035102 55 0.0 0.0 0.00 0.00 0.00 76 1023.6
20260502034603 55 0.0 0.0 0.00 0.00 0.00 77 1023.6
20260502034102 55 0.0 0.0 0.00 0.00 0.00 76 1023.6
20260502033602 55 0.0 0.0 0.00 0.00 0.00 76 1023.5
20260502033102 55 0.0 0.0 0.00 0.00 0.00 76 1023.5
20260502032602 55 0.0 0.0 0.00 0.00 0.00 77 1023.5
20260502032102 55 0.0 0.0 0.00 0.00 0.00 77 1023.5
20260502031602 55 0.0 0.0 0.00 0.00 0.00 77 1023.6
20260502031103 55 0.0 0.0 0.00 0.00 0.00 77 1023.6
20260502025602 55 0.0 0.0 0.00 0.00 0.00 79 1023.6
20260502025103 56 0.0 0.0 0.00 0.00 0.00 79 1023.5
20260502024103 56 0.0 0.0 0.00 0.00 0.00 78 1023.5
20260502023602 56 0.0 0.0 0.00 0.00 0.00 79 1023.5
20260502023102 57 0.0 0.0 0.00 0.00 0.00 78 1023.4
20260502022602 57 0.0 0.0 0.00 0.00 0.00 77 1023.5
20260502022102 56 0.0 0.0 0.00 0.00 0.00 78 1023.5
20260502021602 56 0.0 0.0 0.00 0.00 0.00 78 1023.6
20260502021102 56 0.0 0.0 0.00 0.00 0.00 78 1023.6
20260502015102 57 0.0 0.0 0.00 0.00 0.00 77 1023.7
20260502014602 56 0.0 0.0 0.00 0.00 0.00 78 1023.6
20260502014102 56 0.0 0.0 0.00 0.00 0.00 79 1023.6
20260502013603 56 0.0 0.0 0.00 0.00 0.00 80 1023.7
20260502013102 56 0.0 0.0 0.00 0.00 0.00 80 1023.7
20260502012602 56 0.0 0.0 0.00 0.00 0.00 82 1023.7
20260502012102 56 0.0 0.0 0.00 0.00 0.00 81 1023.7
20260502011602 56 0.0 0.0 0.00 0.00 0.00 80 1023.8
20260502011102 56 0.0 0.0 0.00 0.00 0.00 79 1023.9
20260502010602 56 0.0 0.0 0.00 0.00 0.00 78 1024.1
20260502005602 57 0.0 0.0 0.00 0.00 0.00 75 1024.1
20260502005103 56 0.0 0.0 0.00 0.00 0.00 75 1024.1
20260502004602 57 0.0 0.0 0.00 0.00 0.00 74 1024.0
20260502004102 57 0.0 0.0 0.00 0.00 0.00 74 1024.1
20260502003602 57 0.0 0.0 0.00 0.00 0.00 75 1024.3
20260502003102 57 0.0 0.0 0.00 0.00 0.00 74 1024.2
20260502002603 57 0.0 0.0 0.00 0.00 0.00 75 1024.3
20260502002102 57 0.0 0.0 0.00 0.00 0.00 76 1024.3
20260502001603 57 0.0 0.0 0.00 0.00 0.00 76 1024.3
20260502001101 57 0.0 0.0 0.00 0.00 0.00 76 1024.4
20260502000603 57 0.0 0.0 0.00 0.00 0.00 76 1024.4
20260502000101 57 0.0 0.0 0.00 0.00 0.00 75 1024.4
20260501235603 57 0.0 0.0 0.00 0.00 0.00 76 1024.5
20260501235102 57 0.0 0.0 0.00 0.00 0.00 77 1024.5
20260501234602 56 0.0 0.0 0.00 0.00 0.00 76 1024.5
20260501234102 57 0.0 0.0 0.00 0.00 0.00 75 1024.6
20260501233602 57 0.0 0.0 0.00 0.00 0.00 77 1024.6
20260501233102 57 0.0 0.0 0.00 0.00 0.00 77 1024.6
20260501232602 57 0.0 0.0 0.00 0.00 0.00 77 1024.6
20260501232103 57 0.0 0.0 0.00 0.00 0.00 77 1024.6
20260501231602 57 0.0 0.0 0.00 0.00 0.00 78 1024.6
20260501231103 56 0.0 0.0 0.00 0.00 0.00 79 1024.6
20260501230603 57 0.0 0.0 0.00 0.00 0.00 77 1024.7
20260501225602 58 0.0 0.0 0.00 0.00 0.00 77 1024.7
20260501225102 58 0.0 0.0 0.00 0.00 0.00 75 1024.8
20260501224603 58 0.0 0.0 0.00 0.00 0.00 76 1024.7
20260501224102 58 0.0 0.0 0.00 0.00 0.00 76 1024.6
20260501223603 57 0.0 0.0 0.00 0.00 0.00 76 1024.6
20260501223102 58 0.0 0.0 0.00 0.00 0.00 75 1024.7
20260501222602 58 0.0 0.0 0.00 0.00 0.00 75 1024.7
20260501222102 58 0.0 0.0 0.00 0.00 0.00 75 1024.7
20260501221601 58 0.0 0.0 0.00 0.00 0.00 75 1024.7
20260501221102 58 0.0 0.0 0.00 0.00 0.00 74 1024.7
20260501220602 58 0.0 0.0 0.00 0.00 0.00 74 1024.6
20260501215603 58 0.0 0.0 0.00 0.00 0.00 74 1024.8
20260501215102 58 0.0 0.0 0.00 0.00 0.00 73 1024.8
20260501214602 58 0.0 0.0 0.00 0.00 0.00 74 1024.8
20260501214103 59 0.0 0.0 0.00 0.00 0.00 74 1024.7
20260501213102 59 0.0 0.0 0.00 0.00 0.00 73 1024.7
20260501212102 59 0.0 0.0 0.00 0.00 0.00 73 1024.7